Weather History for KLTS - February, 2013

Change the Weather History Date:

Thursday, February 28, 2013

  Actual Average Record
Temperature  
Mean Temperature 40 °F -  
Max Temperature 53 °F 56 °F 76 °F (2014)
Min Temperature 28 °F 31 °F 17 °F (2015)
Degree Days  
Heating Degree Days 24    
Moisture  
Dew Point 27 °F    
Average Humidity 65    
Maximum Humidity 89    
Minimum Humidity 30    
Precipitation  
Precipitation 0.00 in - - ()
Sea Level Pressure  
Sea Level Pressure 30.28 in    
Wind  
Wind Speed 9 mph (NNW)    
Max Wind Speed 20 mph    
Max Gust Speed 22 mph    
Visibility 10 miles    
Events      
Averages and records for this station are not official NWS values.
T = Trace of Precipitation, MM = Missing Value Source: NWS Daily Summary

Daily Weather History Graph

Daily Weather History Graph

Search for Another Location

Airport or City:

Trip Planner

Search our weather history database for the weather conditions in past years. The results will help you decide how hot, cold, wet, or windy it might be!

Date:

Astronomy

Feb. 28, 2013 Rise Set
Actual Time 7:07 AM CST 6:32 PM CST
Civil Twilight 6:41 AM CST 6:57 PM CST
Nautical Twilight 6:12 AM CST 7:26 PM CST
Astronomical Twilight 5:43 AM CST 7:56 PM CST
Moon 9:50 PM CST (2/28) 8:27 AM CST (2/28)
Length of Visible Light 12h 15m
Length of Day
11h 25m
Waning Gibbous, 90% of the Moon is Illuminated
Feb 28
Waning Gibbous
Mar 4
Last Quarter
Mar 11
New
Mar 19
First Quarter
Mar 27
Full

Hourly Weather History & Observations

Time (CST) Temp. Windchill Dew Point Humidity Pressure Visibility Wind Dir Wind Speed Gust Speed Precip Events Conditions
12:55 AM 33.1 °F 26.1 °F 27.5 °F 80% 30.29 in 10.0 mi NW 8.1 mph - N/A   Clear
1:55 AM 30.7 °F 24.9 °F 27.1 °F 86% 30.30 in 10.0 mi NW 5.8 mph - N/A   Clear
2:55 AM 29.8 °F 22.2 °F 26.4 °F 87% 30.29 in 10.0 mi NW 8.1 mph - N/A   Clear
3:55 AM 29.8 °F 21.5 °F 26.4 °F 87% 30.28 in 10.0 mi NNW 9.2 mph - N/A   Clear
4:55 AM 29.3 °F 21.5 °F 26.1 °F 88% 30.28 in 10.0 mi NW 8.1 mph - N/A   Clear
5:55 AM 29.8 °F 21.5 °F 26.1 °F 86% 30.29 in 10.0 mi NW 9.2 mph - N/A   Clear
6:55 AM 29.7 °F 22.0 °F 25.9 °F 86% 30.29 in 10.0 mi NW 8.1 mph - N/A   Clear
7:55 AM 28.9 °F 21.9 °F 26.1 °F 89% 30.32 in 10.0 mi West 6.9 mph - N/A   Clear
8:55 AM 33.6 °F 26.2 °F 28.0 °F 80% 30.32 in 10.0 mi WNW 9.2 mph - N/A   Clear
9:55 AM 39.4 °F 32.7 °F 29.3 °F 67% 30.33 in 10.0 mi NW 10.4 mph - N/A   Clear
10:55 AM 45.1 °F 38.8 °F 29.3 °F 54% 30.32 in 10.0 mi NNW 13.8 mph - N/A   Clear
11:55 AM 48.0 °F - 28.8 °F 47% 30.32 in 10.0 mi NW 8.1 mph - N/A   Clear
12:55 PM 51.3 °F - 28.2 °F 41% 30.29 in 10.0 mi NNW 15.0 mph - N/A   Clear
1:55 PM 52.5 °F - 27.5 °F 38% 30.27 in 10.0 mi NW 13.8 mph 21.9 mph N/A   Clear
2:55 PM 53.8 °F - 25.2 °F 33% 30.24 in 10.0 mi NNW 19.6 mph - N/A   Clear
3:55 PM 53.8 °F - 23.9 °F 31% 30.23 in 10.0 mi NNW 17.3 mph - N/A   Clear
4:55 PM 53.4 °F - 22.3 °F 30% 30.23 in 10.0 mi NNW 16.1 mph - N/A   Clear
5:55 PM 50.9 °F - 23.2 °F 34% 30.23 in 10.0 mi North 15.0 mph - N/A   Clear
6:55 PM 39.9 °F 34.5 °F 26.6 °F 59% 30.25 in 10.0 mi NNE 8.1 mph - N/A   Clear
7:55 PM 35.6 °F 30.7 °F 27.7 °F 73% 30.26 in 10.0 mi NNE 5.8 mph - N/A   Clear
8:55 PM 36.0 °F 29.0 °F 27.1 °F 70% 30.26 in 10.0 mi NNE 9.2 mph - N/A   Clear
9:55 PM 32.4 °F 26.9 °F 27.0 °F 80% 30.26 in 10.0 mi NNE 5.8 mph - N/A   Clear
10:55 PM 33.4 °F - 26.1 °F 74% 30.25 in 10.0 mi Calm Calm - N/A   Clear
11:55 PM 35.2 °F 30.3 °F 26.2 °F 70% 30.25 in 10.0 mi WSW 5.8 mph - N/A   Clear